Doylestown, PA

8:22 AM EDT on July 22, 2017 (GMT -0400)
Doylestown

Weather History for KDYL - January, 2014

Change the Weather History Date:

Thursday, January 9, 2014

  Actual Average (KTTN) Record (KTTN)
Temperature  
Mean Temperature 23 °F -  
Max Temperature 30 °F 38 °F 67 °F (1937)
Min Temperature 16 °F 24 °F 4 °F (1970)
Degree Days  
Heating Degree Days 42    
Moisture  
Dew Point 11 °F    
Average Humidity 58    
Maximum Humidity 77    
Minimum Humidity 43    
Precipitation  
Precipitation 0.00 in - - ()
Sea Level Pressure  
Sea Level Pressure 30.61 in    
Wind  
Wind Speed 1 mph (North)    
Max Wind Speed 9 mph    
Max Gust Speed -    
Visibility 10 miles    
Events      
Averages and records for this station are not official NWS values.
T = Trace of Precipitation, MM = Missing Value Source: NWS Daily Summary

Daily Weather History Graph

Daily Weather History Graph

Search for Another Location

Airport or City:

Trip Planner

Search our weather history database for the weather conditions in past years. The results will help you decide how hot, cold, wet, or windy it might be!

Date:

Astronomy

Jan. 09, 2014 Rise Set
Actual Time 7:23 AM EST 4:52 PM EST
Civil Twilight 6:52 AM EST 5:22 PM EST
Nautical Twilight 6:19 AM EST 5:56 PM EST
Astronomical Twilight 5:46 AM EST 6:29 PM EST
Moon 12:18 PM EST (1/9) 1:27 AM EST (1/9)
Length of Visible Light 10h 29m
Length of Day
9h 29m
Waxing Gibbous, 66% of the Moon is Illuminated
Jan 9
Waxing Gibbous
Jan 15
Full
Jan 24
Last Quarter
Jan 30
New
Feb 6
First Quarter

Hourly Weather History & Observations

Time (EST) Temp. Windchill Dew Point Humidity Pressure Visibility Wind Dir Wind Speed Gust Speed Precip Events Conditions
12:54 AM 19.9 °F - 7.0 °F 57% 30.52 in 10.0 mi Calm Calm - N/A   Overcast
1:54 AM 19.9 °F - 7.0 °F 57% 30.53 in 10.0 mi Calm Calm - N/A   Overcast
2:54 AM 19.9 °F - 8.1 °F 60% 30.55 in 10.0 mi Calm Calm - N/A   Partly Cloudy
3:54 AM 21.0 °F - 9.0 °F 60% 30.55 in 10.0 mi Calm Calm - N/A   Mostly Cloudy
4:54 AM 19.9 °F 14.9 °F 9.0 °F 62% 30.57 in 10.0 mi West 3.5 mph - N/A   Scattered Clouds
5:54 AM 19.9 °F - 9.0 °F 62% 30.58 in 10.0 mi Calm Calm - N/A   Mostly Cloudy
6:54 AM 16.0 °F - 10.0 °F 77% 30.61 in 10.0 mi Calm Calm - N/A   Partly Cloudy
7:54 AM 16.0 °F - 10.0 °F 77% 30.63 in 10.0 mi Calm Calm - N/A   Clear
8:54 AM 21.9 °F 17.2 °F 10.9 °F 63% 30.66 in 10.0 mi NNE 3.5 mph - N/A   Clear
9:54 AM 25.0 °F 15.5 °F 10.9 °F 55% 30.68 in 10.0 mi North 9.2 mph - N/A   Clear
10:54 AM 26.1 °F 21.9 °F 12.0 °F 55% 30.68 in 10.0 mi North 3.5 mph - N/A   Clear
11:54 AM 28.0 °F 22.8 °F 10.9 °F 49% 30.64 in 10.0 mi NNE 4.6 mph - N/A   Clear
12:54 PM 28.9 °F - 10.9 °F 47% 30.62 in 10.0 mi Calm Calm - N/A   Clear
1:54 PM 30.9 °F - 12.0 °F 46% 30.61 in 10.0 mi Calm Calm - N/A   Clear
2:54 PM 30.0 °F - 10.0 °F 43% 30.62 in 10.0 mi Calm Calm - N/A   Clear
3:54 PM 30.0 °F - 10.0 °F 43% 30.62 in 10.0 mi Calm Calm - N/A   Clear
4:54 PM 28.0 °F - 10.9 °F 49% 30.63 in 10.0 mi Calm Calm - N/A   Clear
6:54 PM 26.1 °F - 12.0 °F 55% 30.64 in 10.0 mi Calm Calm - N/A   Clear
7:54 PM 25.0 °F - 10.9 °F 55% 30.63 in 10.0 mi Calm Calm - N/A   Clear
8:54 PM 23.0 °F - 12.0 °F 63% 30.62 in 10.0 mi Calm Calm - N/A   Clear
9:54 PM 24.1 °F 19.7 °F 14.0 °F 65% 30.63 in 10.0 mi SSE 3.5 mph - N/A   Clear
10:54 PM 24.1 °F - 16.0 °F 71% 30.62 in 10.0 mi Calm Calm - N/A   Mostly Cloudy
11:54 PM 24.1 °F - 16.0 °F 71% 30.60 in 10.0 mi Calm Calm - N/A   Partly Cloudy